Time,TemperatureF,DewpointF,PressureIn,WindDirection,WindDirectionDegrees,WindSpeedMPH,WindSpeedGustMPH,Humidity,HourlyPrecipIn,Conditions,Clouds,dailyrainin,SoftwareType,DateUTC
2013-01-02 00:03:00,24.1,22.6,28.80,NW,315,2.0,3.0,94,0.00,,,0.00,meteohub,2013-01-02 06:03:00,
2013-01-02 00:08:00,24.3,22.8,28.80,West,270,2.0,3.0,94,0.00,,,0.00,meteohub,2013-01-02 06:08:00,
2013-01-02 00:13:00,24.1,22.8,28.79,NW,315,2.0,4.0,95,0.00,,,0.00,meteohub,2013-01-02 06:13:00,
2013-01-02 00:18:00,24.3,23.0,28.79,North,0,2.0,4.0,95,0.00,,,0.00,meteohub,2013-01-02 06:18:00,
2013-01-02 00:23:00,24.4,23.2,28.79,NW,315,2.0,4.0,95,0.00,,,0.00,meteohub,2013-01-02 06:23:00,
2013-01-02 00:28:00,24.3,23.0,28.79,NW,315,2.0,3.0,95,0.00,,,0.00,meteohub,2013-01-02 06:28:00,
2013-01-02 00:33:00,24.6,23.4,28.79,NW,315,2.0,3.0,95,0.00,,,0.00,meteohub,2013-01-02 06:33:00,
2013-01-02 00:38:00,24.6,23.2,28.79,WNW,293,3.0,3.0,94,0.00,,,0.00,meteohub,2013-01-02 06:38:00,
2013-01-02 00:43:00,24.4,23.0,28.79,WNW,293,3.0,3.0,94,0.00,,,0.00,meteohub,2013-01-02 06:43:00,
2013-01-02 00:48:00,24.8,23.0,28.79,NW,315,3.0,3.0,93,0.00,,,0.00,meteohub,2013-01-02 06:48:00,
2013-01-02 00:53:00,24.6,22.8,28.79,West,270,4.0,4.0,93,0.00,,,0.00,meteohub,2013-01-02 06:53:00,
2013-01-02 00:58:00,25.0,23.2,28.78,NW,315,4.0,4.0,93,0.00,,,0.00,meteohub,2013-01-02 06:58:00,
2013-01-02 01:03:00,24.8,23.0,28.78,NW,315,2.0,4.0,93,0.00,,,0.00,meteohub,2013-01-02 07:03:00,
2013-01-02 01:08:00,24.8,22.8,28.78,NW,315,2.0,4.0,92,0.00,,,0.00,meteohub,2013-01-02 07:08:00,
2013-01-02 01:13:00,24.4,22.5,28.78,NW,315,2.0,4.0,92,0.00,,,0.00,meteohub,2013-01-02 07:13:00,
2013-01-02 01:18:00,24.4,22.5,28.78,NW,315,2.0,4.0,92,0.00,,,0.00,meteohub,2013-01-02 07:18:00,
2013-01-02 01:23:00,24.6,22.6,28.77,NW,315,2.0,3.0,92,0.00,,,0.00,meteohub,2013-01-02 07:23:00,
2013-01-02 01:28:00,24.4,22.5,28.77,West,270,2.0,3.0,92,0.00,,,0.00,meteohub,2013-01-02 07:28:00,
2013-01-02 01:33:00,24.3,22.3,28.77,NW,315,2.0,4.0,92,0.00,,,0.00,meteohub,2013-01-02 07:33:00,
2013-01-02 01:38:00,24.4,22.5,28.77,NW,315,2.0,4.0,92,0.00,,,0.00,meteohub,2013-01-02 07:38:00,
2013-01-02 01:43:00,24.3,22.3,28.77,North,0,2.0,4.0,92,0.00,,,0.00,meteohub,2013-01-02 07:43:00,
2013-01-02 01:48:00,24.3,22.3,28.78,North,0,2.0,4.0,92,0.00,,,0.00,meteohub,2013-01-02 07:48:00,
2013-01-02 01:53:00,24.3,22.5,28.78,NE,45,2.0,3.0,93,0.00,,,0.00,meteohub,2013-01-02 07:53:00,
2013-01-02 01:58:00,24.1,22.3,28.78,North,0,3.0,3.0,93,0.00,,,0.00,meteohub,2013-01-02 07:58:00,
2013-01-02 02:03:00,24.4,22.6,28.78,North,0,2.0,4.0,93,0.00,,,0.00,meteohub,2013-01-02 08:03:00,
2013-01-02 02:08:00,24.4,22.6,28.79,North,0,2.0,4.0,93,0.00,,,0.00,meteohub,2013-01-02 08:08:00,
2013-01-02 02:13:00,24.4,22.6,28.79,North,0,2.0,4.0,93,0.00,,,0.00,meteohub,2013-01-02 08:13:00,
2013-01-02 02:18:00,24.4,22.5,28.78,NW,315,2.0,3.0,92,0.00,,,0.00,meteohub,2013-01-02 08:18:00,
2013-01-02 02:23:00,24.4,22.5,28.78,NW,315,2.0,3.0,92,0.00,,,0.00,meteohub,2013-01-02 08:23:00,
2013-01-02 02:28:00,24.3,22.3,28.78,NW,315,2.0,3.0,92,0.00,,,0.00,meteohub,2013-01-02 08:28:00,
2013-01-02 02:33:00,24.3,22.3,28.78,West,270,2.0,2.0,92,0.00,,,0.00,meteohub,2013-01-02 08:33:00,
2013-01-02 02:38:00,23.9,21.9,28.78,West,270,2.0,2.0,92,0.00,,,0.00,meteohub,2013-01-02 08:38:00,
2013-01-02 02:43:00,23.9,22.1,28.79,West,270,2.0,2.0,93,0.00,,,0.00,meteohub,2013-01-02 08:43:00,
2013-01-02 02:48:00,23.5,21.7,28.79,NW,315,1.0,2.0,93,0.00,,,0.00,meteohub,2013-01-02 08:48:00,
2013-01-02 02:53:00,23.5,21.7,28.78,NW,315,2.0,2.0,93,0.00,,,0.00,meteohub,2013-01-02 08:53:00,
2013-01-02 02:58:00,23.2,21.4,28.78,NW,315,2.0,2.0,93,0.00,,,0.00,meteohub,2013-01-02 08:58:00,
2013-01-02 03:03:00,23.2,21.7,28.79,NW,315,2.0,2.0,94,0.00,,,0.00,meteohub,2013-01-02 09:03:00,
2013-01-02 03:09:00,23.0,21.6,28.78,NW,315,2.0,2.0,94,0.00,,,0.00,meteohub,2013-01-02 09:09:00,
2013-01-02 03:14:00,23.2,21.9,28.78,NW,315,2.0,2.0,95,0.00,,,0.00,meteohub,2013-01-02 09:14:00,
2013-01-02 03:19:00,23.2,21.9,28.78,NW,315,2.0,2.0,95,0.00,,,0.00,meteohub,2013-01-02 09:19:00,
2013-01-02 03:24:00,23.2,21.9,28.77,NW,315,2.0,2.0,95,0.00,,,0.00,meteohub,2013-01-02 09:24:00,
2013-01-02 03:29:00,22.8,21.6,28.77,NW,315,2.0,2.0,95,0.00,,,0.00,meteohub,2013-01-02 09:29:00,
2013-01-02 03:34:00,22.6,21.4,28.77,NW,315,1.0,2.0,95,0.00,,,0.00,meteohub,2013-01-02 09:34:00,
2013-01-02 03:39:00,22.5,21.2,28.77,NW,315,2.0,2.0,95,0.00,,,0.00,meteohub,2013-01-02 09:39:00,
2013-01-02 03:44:00,22.5,21.2,28.77,NW,315,2.0,2.0,95,0.00,,,0.00,meteohub,2013-01-02 09:44:00,
2013-01-02 03:49:00,22.6,21.4,28.77,West,270,2.0,2.0,95,0.00,,,0.00,meteohub,2013-01-02 09:49:00,
2013-01-02 03:54:00,22.3,21.0,28.77,NW,315,2.0,2.0,95,0.00,,,0.00,meteohub,2013-01-02 09:54:00,
2013-01-02 03:59:00,22.3,21.0,28.77,NW,315,2.0,2.0,95,0.00,,,0.00,meteohub,2013-01-02 09:59:00,
2013-01-02 04:04:00,22.1,20.8,28.77,West,270,2.0,2.0,95,0.00,,,0.00,meteohub,2013-01-02 10:04:00,
2013-01-02 04:09:00,22.1,20.8,28.77,NW,315,2.0,2.0,95,0.00,,,0.00,meteohub,2013-01-02 10:09:00,
2013-01-02 04:14:00,21.9,21.0,28.77,NW,315,2.0,2.0,96,0.00,,,0.00,meteohub,2013-01-02 10:14:00,
2013-01-02 04:19:00,21.7,20.8,28.77,NW,315,2.0,3.0,96,0.00,,,0.00,meteohub,2013-01-02 10:19:00,
2013-01-02 04:24:00,21.7,20.8,28.77,NW,315,2.0,3.0,96,0.00,,,0.00,meteohub,2013-01-02 10:24:00,
2013-01-02 04:29:00,21.7,20.8,28.77,NW,315,2.0,3.0,96,0.00,,,0.00,meteohub,2013-01-02 10:29:00,
2013-01-02 04:34:00,21.6,20.7,28.77,West,270,4.0,4.0,96,0.00,,,0.00,meteohub,2013-01-02 10:34:00,
2013-01-02 04:39:00,21.4,20.5,28.77,NW,315,3.0,4.0,96,0.00,,,0.00,meteohub,2013-01-02 10:39:00,
2013-01-02 04:44:00,21.4,20.5,28.76,NW,315,2.0,4.0,96,0.00,,,0.00,meteohub,2013-01-02 10:44:00,
2013-01-02 04:49:00,21.7,20.8,28.76,NW,315,2.0,4.0,96,0.00,,,0.00,meteohub,2013-01-02 10:49:00,
2013-01-02 04:54:00,21.6,20.7,28.76,NW,315,2.0,4.0,96,0.00,,,0.00,meteohub,2013-01-02 10:54:00,
2013-01-02 04:59:00,21.4,20.5,28.76,NW,315,2.0,3.0,96,0.00,,,0.00,meteohub,2013-01-02 10:59:00,
2013-01-02 05:04:00,21.4,20.5,28.76,NW,315,2.0,2.0,96,0.00,,,0.00,meteohub,2013-01-02 11:04:00,
2013-01-02 05:09:00,21.6,20.7,28.76,NW,315,1.0,2.0,96,0.00,,,0.00,meteohub,2013-01-02 11:09:00,
2013-01-02 05:14:00,21.2,20.3,28.76,NW,315,2.0,3.0,96,0.00,,,0.00,meteohub,2013-01-02 11:14:00,
2013-01-02 05:19:00,21.0,20.1,28.76,NW,315,2.0,3.0,96,0.00,,,0.00,meteohub,2013-01-02 11:19:00,
2013-01-02 05:24:00,21.0,20.1,28.76,NW,315,2.0,3.0,96,0.00,,,0.00,meteohub,2013-01-02 11:24:00,
2013-01-02 05:29:00,20.8,19.9,28.76,NW,315,2.0,2.0,96,0.00,,,0.00,meteohub,2013-01-02 11:29:00,
2013-01-02 05:34:00,20.7,19.8,28.76,NW,315,2.0,2.0,96,0.00,,,0.00,meteohub,2013-01-02 11:34:00,
2013-01-02 05:39:00,20.7,19.8,28.76,West,270,1.0,2.0,96,0.00,,,0.00,meteohub,2013-01-02 11:39:00,
2013-01-02 05:44:00,20.7,19.8,28.76,NW,315,1.0,2.0,96,0.00,,,0.00,meteohub,2013-01-02 11:44:00,
2013-01-02 05:49:00,20.5,19.6,28.76,NW,315,1.0,2.0,96,0.00,,,0.00,meteohub,2013-01-02 11:49:00,
2013-01-02 05:55:00,20.5,19.6,28.76,NW,315,0.0,2.0,96,0.00,,,0.00,meteohub,2013-01-02 11:55:00,
2013-01-02 06:00:00,20.5,19.6,28.76,SW,225,1.0,1.0,96,0.00,,,0.00,meteohub,2013-01-02 12:00:00,
2013-01-02 06:05:00,20.5,19.6,28.76,SW,225,0.0,2.0,96,0.00,,,0.00,meteohub,2013-01-02 12:05:00,
2013-01-02 06:10:00,20.3,19.4,28.76,SW,225,1.0,2.0,96,0.00,,,0.00,meteohub,2013-01-02 12:10:00,
2013-01-02 06:15:00,19.9,19.0,28.76,SW,225,2.0,2.0,96,0.00,,,0.00,meteohub,2013-01-02 12:15:00,
2013-01-02 06:20:00,19.8,18.5,28.76,SW,225,2.0,2.0,95,0.00,,,0.00,meteohub,2013-01-02 12:20:00,
2013-01-02 06:25:00,19.6,18.3,28.76,SW,225,2.0,2.0,95,0.00,,,0.00,meteohub,2013-01-02 12:25:00,
2013-01-02 06:30:00,19.8,18.9,28.76,SW,225,3.0,3.0,96,0.00,,,0.00,meteohub,2013-01-02 12:30:00,
2013-01-02 06:35:00,19.8,18.9,28.76,West,270,4.0,4.0,96,0.00,,,0.00,meteohub,2013-01-02 12:35:00,
2013-01-02 06:40:00,19.9,19.0,28.76,SW,225,3.0,4.0,96,0.00,,,0.00,meteohub,2013-01-02 12:40:00,
2013-01-02 06:45:00,19.8,18.5,28.76,West,270,3.0,4.0,95,0.00,,,0.00,meteohub,2013-01-02 12:45:00,
2013-01-02 06:50:00,19.8,18.5,28.76,West,270,4.0,6.0,95,0.00,,,0.00,meteohub,2013-01-02 12:50:00,
2013-01-02 06:55:00,19.8,18.5,28.76,SW,225,2.0,6.0,95,0.00,,,0.00,meteohub,2013-01-02 12:55:00,
2013-01-02 07:00:00,19.6,18.3,28.77,SW,225,2.0,4.0,95,0.00,,,0.00,meteohub,2013-01-02 13:00:00,
2013-01-02 07:05:00,19.6,18.3,28.77,South,180,1.0,4.0,95,0.00,,,0.00,meteohub,2013-01-02 13:05:00,
2013-01-02 07:10:00,19.2,18.0,28.78,SW,225,2.0,2.0,95,0.00,,,0.00,meteohub,2013-01-02 13:10:00,
2013-01-02 07:15:00,19.4,18.1,28.78,South,180,2.0,2.0,95,0.00,,,0.00,meteohub,2013-01-02 13:15:00,
2013-01-02 07:20:00,19.2,18.0,28.78,South,180,3.0,3.0,95,0.00,,,0.00,meteohub,2013-01-02 13:20:00,
2013-01-02 07:25:00,18.7,17.4,28.78,SE,135,2.0,3.0,95,0.00,,,0.00,meteohub,2013-01-02 13:25:00,
2013-01-02 07:30:00,19.0,17.8,28.78,SW,225,3.0,3.0,95,0.00,,,0.00,meteohub,2013-01-02 13:30:00,
2013-01-02 07:35:00,18.9,17.6,28.78,SW,225,2.0,4.0,95,0.00,,,0.00,meteohub,2013-01-02 13:35:00,
2013-01-02 07:40:00,18.7,17.4,28.78,South,180,2.0,4.0,95,0.00,,,0.00,meteohub,2013-01-02 13:40:00,
2013-01-02 07:45:00,18.7,17.4,28.78,SW,225,2.0,4.0,95,0.00,,,0.00,meteohub,2013-01-02 13:45:00,
2013-01-02 07:50:00,18.7,17.4,28.78,SW,225,3.0,3.0,95,0.00,,,0.00,meteohub,2013-01-02 13:50:00,
2013-01-02 07:55:00,18.9,17.6,28.79,SW,225,3.0,3.0,95,0.00,,,0.00,meteohub,2013-01-02 13:55:00,
2013-01-02 08:00:00,19.0,17.8,28.79,SW,225,2.0,4.0,95,0.00,,,0.00,meteohub,2013-01-02 14:00:00,
2013-01-02 08:05:00,18.9,17.6,28.79,South,180,3.0,4.0,95,0.00,,,0.00,meteohub,2013-01-02 14:05:00,
2013-01-02 08:10:00,19.0,17.8,28.79,SW,225,2.0,4.0,95,0.00,,,0.00,meteohub,2013-01-02 14:10:00,
2013-01-02 08:15:00,18.9,17.6,28.79,SW,225,2.0,4.0,95,0.00,,,0.00,meteohub,2013-01-02 14:15:00,
2013-01-02 08:20:00,18.9,17.6,28.79,SW,225,2.0,3.0,95,0.00,,,0.00,meteohub,2013-01-02 14:20:00,
2013-01-02 08:25:00,19.2,18.0,28.79,SW,225,3.0,3.0,95,0.00,,,0.00,meteohub,2013-01-02 14:25:00,
2013-01-02 08:30:00,19.6,18.3,28.79,SSW,203,2.0,3.0,95,0.00,,,0.00,meteohub,2013-01-02 14:30:00,
2013-01-02 08:35:00,19.9,18.7,28.79,South,180,2.0,3.0,95,0.00,,,0.00,meteohub,2013-01-02 14:35:00,
2013-01-02 08:40:00,20.3,19.0,28.79,SW,225,2.0,4.0,95,0.00,,,0.00,meteohub,2013-01-02 14:40:00,
2013-01-02 08:45:00,21.0,19.8,28.79,South,180,3.0,4.0,95,0.00,,,0.00,meteohub,2013-01-02 14:45:00,
2013-01-02 08:50:00,21.0,19.8,28.79,South,180,3.0,4.0,95,0.00,,,0.00,meteohub,2013-01-02 14:50:00,
2013-01-02 08:55:00,21.2,19.9,28.79,South,180,3.0,4.0,95,0.00,,,0.00,meteohub,2013-01-02 14:55:00,
2013-01-02 09:00:00,21.4,20.1,28.79,South,180,2.0,4.0,95,0.00,,,0.00,meteohub,2013-01-02 15:00:00,
2013-01-02 09:05:00,21.7,20.5,28.79,SW,225,4.0,4.0,95,0.00,,,0.00,meteohub,2013-01-02 15:05:00,
2013-01-02 09:10:00,22.6,21.4,28.79,SW,225,4.0,4.0,95,0.00,,,0.00,meteohub,2013-01-02 15:10:00,
2013-01-02 09:15:00,23.7,22.3,28.79,SW,225,5.0,5.0,94,0.00,,,0.00,meteohub,2013-01-02 15:15:00,
2013-01-02 09:21:00,24.3,22.5,28.79,SW,225,4.0,5.0,93,0.00,,,0.00,meteohub,2013-01-02 15:21:00,
2013-01-02 09:26:00,24.8,22.8,28.78,SW,225,4.0,5.0,92,0.00,,,0.00,meteohub,2013-01-02 15:26:00,
2013-01-02 09:31:00,25.5,23.2,28.79,SW,225,4.0,7.0,91,0.00,,,0.00,meteohub,2013-01-02 15:31:00,
2013-01-02 09:36:00,26.1,23.5,28.79,SW,225,4.0,7.0,90,0.00,,,0.00,meteohub,2013-01-02 15:36:00,
2013-01-02 09:41:00,26.6,23.7,28.79,SSW,203,5.0,7.0,89,0.00,,,0.00,meteohub,2013-01-02 15:41:00,
2013-01-02 09:46:00,27.5,24.6,28.79,SW,225,6.0,7.0,89,0.00,,,0.00,meteohub,2013-01-02 15:46:00,
2013-01-02 09:51:00,27.9,24.4,28.80,SW,225,8.0,8.0,87,0.00,,,0.00,meteohub,2013-01-02 15:51:00,
2013-01-02 09:56:00,28.6,25.2,28.80,West,270,4.0,8.0,87,0.00,,,0.00,meteohub,2013-01-02 15:56:00,
2013-01-02 10:01:00,29.3,25.7,28.80,SW,225,6.0,8.0,86,0.00,,,0.00,meteohub,2013-01-02 16:01:00,
2013-01-02 10:06:00,29.8,25.9,28.80,SW,225,7.0,8.0,85,0.00,,,0.00,meteohub,2013-01-02 16:06:00,
2013-01-02 10:11:00,29.8,25.5,28.80,SW,225,9.0,9.0,84,0.00,,,0.00,meteohub,2013-01-02 16:11:00,
2013-01-02 10:16:00,30.4,25.9,28.80,SW,225,8.0,11.0,83,0.00,,,0.00,meteohub,2013-01-02 16:16:00,
2013-01-02 10:21:00,30.6,25.3,28.80,WSW,248,12.0,12.0,81,0.00,,,0.00,meteohub,2013-01-02 16:21:00,
2013-01-02 10:26:00,31.1,25.9,28.80,SW,225,9.0,14.0,81,0.00,,,0.00,meteohub,2013-01-02 16:26:00,
2013-01-02 10:31:00,31.1,25.7,28.80,SW,225,12.0,14.0,80,0.00,,,0.00,meteohub,2013-01-02 16:31:00,
2013-01-02 10:36:00,31.6,26.4,28.80,WSW,248,11.0,14.0,81,0.00,,,0.00,meteohub,2013-01-02 16:36:00,
2013-01-02 10:41:00,31.3,25.9,28.80,SW,225,8.0,13.0,80,0.00,,,0.00,meteohub,2013-01-02 16:41:00,
2013-01-02 10:46:00,31.5,26.1,28.80,SW,225,11.0,13.0,80,0.00,,,0.00,meteohub,2013-01-02 16:46:00,
2013-01-02 10:51:00,31.6,25.9,28.80,SW,225,11.0,12.0,79,0.00,,,0.00,meteohub,2013-01-02 16:51:00,
2013-01-02 10:56:00,31.8,25.7,28.80,SW,225,12.0,12.0,78,0.00,,,0.00,meteohub,2013-01-02 16:56:00,
2013-01-02 11:01:00,32.2,26.1,28.80,West,270,9.0,14.0,78,0.00,,,0.00,meteohub,2013-01-02 17:01:00,
2013-01-02 11:06:00,32.2,25.7,28.80,West,270,10.0,14.0,77,0.00,,,0.00,meteohub,2013-01-02 17:06:00,
2013-01-02 11:11:00,32.9,26.8,28.79,SW,225,6.0,14.0,78,0.00,,,0.00,meteohub,2013-01-02 17:11:00,
2013-01-02 11:16:00,33.1,26.4,28.79,NW,315,8.0,11.0,76,0.00,,,0.00,meteohub,2013-01-02 17:16:00,
2013-01-02 11:21:00,33.1,26.1,28.79,SW,225,8.0,11.0,75,0.00,,,0.00,meteohub,2013-01-02 17:21:00,
2013-01-02 11:26:00,33.4,26.4,28.79,North,0,8.0,11.0,75,0.00,,,0.00,meteohub,2013-01-02 17:26:00,
2013-01-02 11:31:00,33.8,26.1,28.79,WNW,293,8.0,13.0,73,0.00,,,0.00,meteohub,2013-01-02 17:31:00,
2013-01-02 11:36:00,33.8,26.1,28.79,West,270,11.0,13.0,73,0.00,,,0.00,meteohub,2013-01-02 17:36:00,
2013-01-02 11:41:00,33.8,26.1,28.78,SW,225,10.0,13.0,73,0.00,,,0.00,meteohub,2013-01-02 17:41:00,
2013-01-02 11:46:00,33.8,26.1,28.78,West,270,8.0,12.0,73,0.00,,,0.00,meteohub,2013-01-02 17:46:00,
2013-01-02 11:51:00,34.3,27.0,28.77,SW,225,13.0,13.0,74,0.00,,,0.00,meteohub,2013-01-02 17:51:00,
2013-01-02 11:56:00,34.7,27.0,28.77,SW,225,9.0,14.0,73,0.00,,,0.00,meteohub,2013-01-02 17:56:00,
2013-01-02 12:01:00,35.4,26.6,28.77,SW,225,13.0,14.0,70,0.00,,,0.00,meteohub,2013-01-02 18:01:00,
2013-01-02 12:06:00,36.0,27.5,28.77,SW,225,12.0,14.0,71,0.00,,,0.00,meteohub,2013-01-02 18:06:00,
2013-01-02 12:11:00,36.1,27.3,28.77,West,270,9.0,13.0,70,0.00,,,0.00,meteohub,2013-01-02 18:11:00,
2013-01-02 12:16:00,36.9,27.7,28.76,NW,315,11.0,15.0,69,0.00,,,0.00,meteohub,2013-01-02 18:16:00,
2013-01-02 12:21:00,37.0,27.5,28.76,West,270,9.0,15.0,68,0.00,,,0.00,meteohub,2013-01-02 18:21:00,
2013-01-02 12:26:00,37.4,27.1,28.75,NW,315,11.0,15.0,66,0.00,,,0.00,meteohub,2013-01-02 18:26:00,
2013-01-02 12:32:00,37.8,27.5,28.75,West,270,8.0,14.0,66,0.00,,,0.00,meteohub,2013-01-02 18:32:00,
2013-01-02 12:37:00,38.3,27.5,28.75,West,270,13.0,13.0,65,0.00,,,0.00,meteohub,2013-01-02 18:37:00,
2013-01-02 12:42:00,38.5,27.3,28.74,West,270,11.0,14.0,64,0.00,,,0.00,meteohub,2013-01-02 18:42:00,
2013-01-02 12:47:00,38.3,27.1,28.74,NW,315,9.0,14.0,64,0.00,,,0.00,meteohub,2013-01-02 18:47:00,
2013-01-02 12:52:00,38.7,27.9,28.74,NW,315,9.0,15.0,65,0.00,,,0.00,meteohub,2013-01-02 18:52:00,
2013-01-02 12:57:00,39.0,27.5,28.74,West,270,8.0,15.0,63,0.00,,,0.00,meteohub,2013-01-02 18:57:00,
2013-01-02 13:02:00,39.0,27.5,28.73,West,270,11.0,15.0,63,0.00,,,0.00,meteohub,2013-01-02 19:02:00,
2013-01-02 13:07:00,39.6,28.4,28.73,West,270,8.0,11.0,64,0.00,,,0.00,meteohub,2013-01-02 19:07:00,
2013-01-02 13:12:00,39.7,27.9,28.73,West,270,8.0,11.0,62,0.00,,,0.00,meteohub,2013-01-02 19:12:00,
2013-01-02 13:17:00,40.5,27.7,28.73,West,270,8.0,11.0,60,0.00,,,0.00,meteohub,2013-01-02 19:17:00,
2013-01-02 13:22:00,40.5,27.7,28.72,West,270,6.0,11.0,60,0.00,,,0.00,meteohub,2013-01-02 19:22:00,
2013-01-02 13:27:00,40.6,27.0,28.73,SW,225,6.0,11.0,58,0.00,,,0.00,meteohub,2013-01-02 19:27:00,
2013-01-02 13:32:00,41.5,28.2,28.72,NW,315,8.0,11.0,59,0.00,,,0.00,meteohub,2013-01-02 19:32:00,
2013-01-02 13:37:00,42.3,27.3,28.72,NW,315,8.0,11.0,55,0.00,,,0.00,meteohub,2013-01-02 19:37:00,
2013-01-02 13:42:00,41.9,27.0,28.72,West,270,7.0,11.0,55,0.00,,,0.00,meteohub,2013-01-02 19:42:00,
2013-01-02 13:47:00,42.6,28.0,28.72,SW,225,6.0,10.0,56,0.00,,,0.00,meteohub,2013-01-02 19:47:00,
2013-01-02 13:52:00,42.3,27.3,28.72,SW,225,11.0,11.0,55,0.00,,,0.00,meteohub,2013-01-02 19:52:00,
2013-01-02 13:57:00,42.3,27.3,28.72,West,270,8.0,11.0,55,0.00,,,0.00,meteohub,2013-01-02 19:57:00,
2013-01-02 14:02:00,43.0,27.5,28.71,WNW,293,8.0,11.0,54,0.00,,,0.00,meteohub,2013-01-02 20:02:00,
2013-01-02 14:07:00,43.2,27.1,28.71,NW,315,6.0,12.0,53,0.00,,,0.00,meteohub,2013-01-02 20:07:00,
2013-01-02 14:12:00,43.5,27.1,28.71,West,270,9.0,12.0,52,0.00,,,0.00,meteohub,2013-01-02 20:12:00,
2013-01-02 14:17:00,44.1,28.0,28.71,West,270,8.0,12.0,53,0.00,,,0.00,meteohub,2013-01-02 20:17:00,
2013-01-02 14:22:00,44.4,27.0,28.71,NW,315,4.0,10.0,50,0.00,,,0.00,meteohub,2013-01-02 20:22:00,
2013-01-02 14:27:00,45.0,25.9,28.70,NW,315,8.0,10.0,47,0.00,,,0.00,meteohub,2013-01-02 20:27:00,
2013-01-02 14:32:00,45.1,25.0,28.70,SW,225,8.0,10.0,45,0.00,,,0.00,meteohub,2013-01-02 20:32:00,
2013-01-02 14:37:00,45.5,25.3,28.71,West,270,6.0,12.0,45,0.00,,,0.00,meteohub,2013-01-02 20:37:00,
2013-01-02 14:42:00,45.3,25.7,28.71,West,270,4.0,12.0,46,0.00,,,0.00,meteohub,2013-01-02 20:42:00,
2013-01-02 14:47:00,45.9,25.2,28.71,SW,225,4.0,12.0,44,0.00,,,0.00,meteohub,2013-01-02 20:47:00,
2013-01-02 14:52:00,45.9,24.6,28.71,West,270,6.0,8.0,43,0.00,,,0.00,meteohub,2013-01-02 20:52:00,
2013-01-02 14:57:00,46.4,26.2,28.71,West,270,4.0,8.0,45,0.00,,,0.00,meteohub,2013-01-02 20:57:00,
2013-01-02 15:02:00,46.9,24.4,28.71,West,270,7.0,8.0,41,0.00,,,0.00,meteohub,2013-01-02 21:02:00,
2013-01-02 15:07:00,46.8,23.7,28.71,West,270,7.0,7.0,40,0.00,,,0.00,meteohub,2013-01-02 21:07:00,
2013-01-02 15:12:00,46.0,23.7,28.71,West,270,6.0,9.0,41,0.00,,,0.00,meteohub,2013-01-02 21:12:00,
2013-01-02 15:17:00,46.2,23.2,28.71,West,270,5.0,9.0,40,0.00,,,0.00,meteohub,2013-01-02 21:17:00,
2013-01-02 15:22:00,46.2,23.9,28.71,West,270,8.0,9.0,41,0.00,,,0.00,meteohub,2013-01-02 21:22:00,
2013-01-02 15:27:00,46.4,23.9,28.71,West,270,4.0,9.0,41,0.00,,,0.00,meteohub,2013-01-02 21:27:00,
2013-01-02 15:32:00,46.9,24.4,28.71,WNW,293,5.0,9.0,41,0.00,,,0.00,meteohub,2013-01-02 21:32:00,
2013-01-02 15:37:00,47.1,23.4,28.71,NW,315,6.0,9.0,39,0.00,,,0.00,meteohub,2013-01-02 21:37:00,
2013-01-02 15:42:00,47.1,22.8,28.71,NW,315,6.0,8.0,38,0.00,,,0.00,meteohub,2013-01-02 21:42:00,
2013-01-02 15:47:00,47.3,23.0,28.71,SW,225,8.0,8.0,38,0.00,,,0.00,meteohub,2013-01-02 21:47:00,
2013-01-02 15:52:00,46.9,23.2,28.71,NW,315,6.0,8.0,39,0.00,,,0.00,meteohub,2013-01-02 21:52:00,
2013-01-02 15:57:00,47.3,23.5,28.71,West,270,3.0,8.0,39,0.00,,,0.00,meteohub,2013-01-02 21:57:00,
2013-01-02 16:02:00,47.1,23.4,28.71,SW,225,6.0,8.0,39,0.00,,,0.00,meteohub,2013-01-02 22:02:00,
2013-01-02 16:07:00,46.8,23.2,28.71,West,270,7.0,8.0,39,0.00,,,0.00,meteohub,2013-01-02 22:07:00,
2013-01-02 16:12:00,47.1,22.8,28.71,SW,225,8.0,8.0,38,0.00,,,0.00,meteohub,2013-01-02 22:12:00,
2013-01-02 16:17:00,47.1,23.4,28.71,West,270,5.0,8.0,39,0.00,,,0.00,meteohub,2013-01-02 22:17:00,
2013-01-02 16:22:00,46.8,22.5,28.71,West,270,8.0,8.0,38,0.00,,,0.00,meteohub,2013-01-02 22:22:00,
2013-01-02 16:27:00,47.1,24.1,28.71,West,270,9.0,9.0,40,0.00,,,0.00,meteohub,2013-01-02 22:27:00,
2013-01-02 16:32:00,46.9,23.2,28.71,NW,315,6.0,9.0,39,0.00,,,0.00,meteohub,2013-01-02 22:32:00,
2013-01-02 16:37:00,47.1,24.1,28.71,NW,315,6.0,9.0,40,0.00,,,0.00,meteohub,2013-01-02 22:37:00,
2013-01-02 16:42:00,46.9,23.9,28.71,West,270,4.0,9.0,40,0.00,,,0.00,meteohub,2013-01-02 22:42:00,
2013-01-02 16:47:00,46.9,24.4,28.71,West,270,3.0,8.0,41,0.00,,,0.00,meteohub,2013-01-02 22:47:00,
2013-01-02 16:52:00,46.8,23.7,28.71,West,270,4.0,7.0,40,0.00,,,0.00,meteohub,2013-01-02 22:52:00,
2013-01-02 16:57:00,46.8,24.8,28.71,West,270,4.0,7.0,42,0.00,,,0.00,meteohub,2013-01-02 22:57:00,
2013-01-02 17:02:00,46.8,24.8,28.71,West,270,3.0,4.0,42,0.00,,,0.00,meteohub,2013-01-02 23:02:00,
2013-01-02 17:07:00,46.4,25.2,28.71,West,270,2.0,4.0,43,0.00,,,0.00,meteohub,2013-01-02 23:07:00,
2013-01-02 17:12:00,46.2,24.4,28.71,West,270,2.0,4.0,42,0.00,,,0.00,meteohub,2013-01-02 23:12:00,
2013-01-02 17:17:00,46.2,25.5,28.71,SW,225,2.0,4.0,44,0.00,,,0.00,meteohub,2013-01-02 23:17:00,
2013-01-02 17:22:00,45.9,25.7,28.71,South,180,1.0,4.0,45,0.00,,,0.00,meteohub,2013-01-02 23:22:00,
2013-01-02 17:27:00,45.7,25.5,28.71,SW,225,1.0,4.0,45,0.00,,,0.00,meteohub,2013-01-02 23:27:00,
2013-01-02 17:32:00,45.5,25.3,28.71,SW,225,2.0,4.0,45,0.00,,,0.00,meteohub,2013-01-02 23:32:00,
2013-01-02 17:37:00,44.8,24.8,28.71,SW,225,0.0,2.0,45,0.00,,,0.00,meteohub,2013-01-02 23:37:00,
2013-01-02 17:42:00,44.2,24.3,28.72,South,180,1.0,2.0,45,0.00,,,0.00,meteohub,2013-01-02 23:42:00,
2013-01-02 17:47:00,43.7,24.3,28.72,SW,225,2.0,2.0,46,0.00,,,0.00,meteohub,2013-01-02 23:47:00,
2013-01-02 17:52:00,43.2,23.7,28.72,SW,225,2.0,2.0,46,0.00,,,0.00,meteohub,2013-01-02 23:52:00,
2013-01-02 17:57:00,42.8,23.9,28.72,SW,225,2.0,2.0,47,0.00,,,0.00,meteohub,2013-01-02 23:57:00,
2013-01-02 18:02:00,42.4,24.1,28.73,NW,315,2.0,2.0,48,0.00,,,0.00,meteohub,2013-01-03 00:02:00,
2013-01-02 18:07:00,41.9,24.6,28.73,NW,315,2.0,2.0,50,0.00,,,0.00,meteohub,2013-01-03 00:07:00,
2013-01-02 18:12:00,41.0,24.3,28.73,North,0,2.0,2.0,51,0.00,,,0.00,meteohub,2013-01-03 00:12:00,
2013-01-02 18:17:00,40.8,25.0,28.74,NW,315,2.0,2.0,53,0.00,,,0.00,meteohub,2013-01-03 00:17:00,
2013-01-02 18:22:00,40.3,25.0,28.74,NW,315,3.0,3.0,54,0.00,,,0.00,meteohub,2013-01-03 00:22:00,
2013-01-02 18:27:00,39.9,25.0,28.74,North,0,4.0,4.0,55,0.00,,,0.00,meteohub,2013-01-03 00:27:00,
2013-01-02 18:34:00,39.7,25.0,28.74,NW,315,3.0,5.0,55,0.00,,,0.00,meteohub,2013-01-03 00:34:00,
2013-01-02 18:39:00,39.7,25.0,28.74,West,270,3.0,5.0,55,0.00,,,0.00,meteohub,2013-01-03 00:39:00,
2013-01-02 18:44:00,39.7,25.0,28.75,NW,315,4.0,4.0,55,0.00,,,0.00,meteohub,2013-01-03 00:44:00,
2013-01-02 18:49:00,39.6,25.2,28.75,NW,315,3.0,4.0,56,0.00,,,0.00,meteohub,2013-01-03 00:49:00,
2013-01-02 18:54:00,38.7,26.1,28.75,NW,315,4.0,4.0,60,0.00,,,0.00,meteohub,2013-01-03 00:54:00,
2013-01-02 18:59:00,38.3,26.1,28.75,NW,315,8.0,8.0,61,0.00,,,0.00,meteohub,2013-01-03 00:59:00,
2013-01-02 19:04:00,38.3,26.4,28.76,North,0,7.0,8.0,62,0.00,,,0.00,meteohub,2013-01-03 01:04:00,
2013-01-02 19:09:00,38.1,26.2,28.76,NW,315,4.0,10.0,62,0.00,,,0.00,meteohub,2013-01-03 01:09:00,
2013-01-02 19:14:00,37.6,26.6,28.76,NW,315,5.0,10.0,64,0.00,,,0.00,meteohub,2013-01-03 01:14:00,
2013-01-02 19:19:00,37.4,26.4,28.76,North,0,6.0,10.0,64,0.00,,,0.00,meteohub,2013-01-03 01:19:00,
2013-01-02 19:24:00,37.2,26.2,28.77,WNW,293,4.0,8.0,64,0.00,,,0.00,meteohub,2013-01-03 01:24:00,
2013-01-02 19:29:00,37.0,26.4,28.77,WNW,293,5.0,8.0,65,0.00,,,0.00,meteohub,2013-01-03 01:29:00,
2013-01-02 19:34:00,36.9,26.2,28.78,NW,315,7.0,8.0,65,0.00,,,0.00,meteohub,2013-01-03 01:34:00,
2013-01-02 19:39:00,36.7,26.4,28.78,North,0,7.0,8.0,66,0.00,,,0.00,meteohub,2013-01-03 01:39:00,
2013-01-02 19:44:00,36.3,26.4,28.78,North,0,4.0,8.0,67,0.00,,,0.00,meteohub,2013-01-03 01:44:00,
2013-01-02 19:49:00,35.8,26.6,28.78,North,0,6.0,8.0,69,0.00,,,0.00,meteohub,2013-01-03 01:49:00,
2013-01-02 19:54:00,35.1,26.6,28.78,North,0,5.0,8.0,71,0.00,,,0.00,meteohub,2013-01-03 01:54:00,
2013-01-02 19:59:00,34.7,27.0,28.78,NE,45,8.0,8.0,73,0.00,,,0.00,meteohub,2013-01-03 01:59:00,
2013-01-02 20:04:00,34.3,27.0,28.79,NW,315,7.0,8.0,74,0.00,,,0.00,meteohub,2013-01-03 02:04:00,
2013-01-02 20:09:00,34.3,27.0,28.79,NW,315,4.0,11.0,74,0.00,,,0.00,meteohub,2013-01-03 02:09:00,
2013-01-02 20:14:00,34.0,27.1,28.79,NW,315,5.0,11.0,76,0.00,,,0.00,meteohub,2013-01-03 02:14:00,
2013-01-02 20:19:00,33.6,26.8,28.80,North,0,6.0,11.0,76,0.00,,,0.00,meteohub,2013-01-03 02:19:00,
2013-01-02 20:24:00,33.8,27.0,28.79,NW,315,6.0,8.0,76,0.00,,,0.00,meteohub,2013-01-03 02:24:00,
2013-01-02 20:29:00,34.0,27.1,28.80,North,0,5.0,8.0,76,0.00,,,0.00,meteohub,2013-01-03 02:29:00,
2013-01-02 20:34:00,33.8,27.0,28.80,NW,315,6.0,8.0,76,0.00,,,0.00,meteohub,2013-01-03 02:34:00,
2013-01-02 20:39:00,33.4,27.0,28.80,NW,315,6.0,8.0,77,0.00,,,0.00,meteohub,2013-01-03 02:39:00,
2013-01-02 20:44:00,33.1,27.0,28.80,North,0,8.0,8.0,78,0.00,,,0.00,meteohub,2013-01-03 02:44:00,
2013-01-02 20:49:00,33.1,27.0,28.80,NW,315,7.0,8.0,78,0.00,,,0.00,meteohub,2013-01-03 02:49:00,
2013-01-02 20:54:00,33.3,27.1,28.80,WNW,293,6.0,9.0,78,0.00,,,0.00,meteohub,2013-01-03 02:54:00,
2013-01-02 20:59:00,32.9,27.1,28.80,North,0,6.0,9.0,79,0.00,,,0.00,meteohub,2013-01-03 02:59:00,
2013-01-02 21:04:00,32.9,27.1,28.79,North,0,6.0,9.0,79,0.00,,,0.00,meteohub,2013-01-03 03:04:00,
2013-01-02 21:09:00,32.9,27.1,28.80,NW,315,8.0,8.0,79,0.00,,,0.00,meteohub,2013-01-03 03:09:00,
2013-01-02 21:14:00,32.9,26.8,28.80,NW,315,4.0,8.0,78,0.00,,,0.00,meteohub,2013-01-03 03:14:00,
2013-01-02 21:19:00,32.7,27.0,28.80,North,0,5.0,8.0,79,0.00,,,0.00,meteohub,2013-01-03 03:19:00,
2013-01-02 21:24:00,32.7,27.0,28.81,North,0,5.0,8.0,79,0.00,,,0.00,meteohub,2013-01-03 03:24:00,
2013-01-02 21:29:00,32.5,27.1,28.81,North,0,7.0,8.0,80,0.00,,,0.00,meteohub,2013-01-03 03:29:00,
2013-01-02 21:35:00,32.2,26.8,28.80,North,0,7.0,8.0,80,0.00,,,0.00,meteohub,2013-01-03 03:35:00,
2013-01-02 21:47:00,31.8,26.6,28.81,North,0,4.0,8.0,81,0.00,,,0.00,meteohub,2013-01-03 03:47:00,
2013-01-02 21:52:00,31.6,26.8,28.81,North,0,4.0,8.0,82,0.00,,,0.00,meteohub,2013-01-03 03:52:00,
2013-01-02 21:57:00,31.5,26.6,28.81,NW,315,5.0,8.0,82,0.00,,,0.00,meteohub,2013-01-03 03:57:00,
2013-01-02 22:02:00,31.5,27.0,28.81,North,0,6.0,6.0,83,0.00,,,0.00,meteohub,2013-01-03 04:02:00,
2013-01-02 22:07:00,31.5,27.0,28.82,North,0,7.0,8.0,83,0.00,,,0.00,meteohub,2013-01-03 04:07:00,
2013-01-02 22:12:00,31.5,27.0,28.81,NW,315,5.0,8.0,83,0.00,,,0.00,meteohub,2013-01-03 04:12:00,
2013-01-02 22:17:00,31.5,27.0,28.82,North,0,6.0,8.0,83,0.00,,,0.00,meteohub,2013-01-03 04:17:00,
2013-01-02 22:22:00,31.5,27.0,28.82,North,0,4.0,8.0,83,0.00,,,0.00,meteohub,2013-01-03 04:22:00,
2013-01-02 22:27:00,31.3,26.8,28.82,NW,315,7.0,8.0,83,0.00,,,0.00,meteohub,2013-01-03 04:27:00,
2013-01-02 22:32:00,31.5,27.0,28.82,NW,315,8.0,8.0,83,0.00,,,0.00,meteohub,2013-01-03 04:32:00,
2013-01-02 22:37:00,31.6,27.1,28.83,NW,315,6.0,8.0,83,0.00,,,0.00,meteohub,2013-01-03 04:37:00,
2013-01-02 22:42:00,31.3,27.0,28.83,NW,315,4.0,8.0,84,0.00,,,0.00,meteohub,2013-01-03 04:42:00,
2013-01-02 22:47:00,31.1,26.8,28.83,North,0,4.0,8.0,84,0.00,,,0.00,meteohub,2013-01-03 04:47:00,
2013-01-02 22:52:00,30.9,27.0,28.83,NW,315,5.0,6.0,85,0.00,,,0.00,meteohub,2013-01-03 04:52:00,
2013-01-02 22:57:00,30.9,27.0,28.83,NW,315,6.0,6.0,85,0.00,,,0.00,meteohub,2013-01-03 04:57:00,
2013-01-02 23:00:00,31.3,27.0,28.84,North,0,5.0,8.0,84,0.00,,,0.00,meteohub,2013-01-03 05:00:00,
2013-01-02 23:02:00,31.3,27.0,28.84,NW,315,7.0,8.0,84,0.00,,,0.00,meteohub,2013-01-03 05:02:00,
2013-01-02 23:03:00,30.9,26.6,28.84,NW,315,7.0,8.0,84,0.00,,,0.00,meteohub,2013-01-03 05:03:00,
2013-01-02 23:08:00,30.9,26.6,28.83,NW,315,5.0,8.0,84,0.00,,,0.00,meteohub,2013-01-03 05:08:00,
2013-01-02 23:13:00,30.7,26.8,28.83,NW,315,6.0,8.0,85,0.00,,,0.00,meteohub,2013-01-03 05:13:00,
2013-01-02 23:18:00,30.6,26.6,28.83,NW,315,4.0,7.0,85,0.00,,,0.00,meteohub,2013-01-03 05:18:00,
2013-01-02 23:23:00,30.4,26.8,28.84,North,0,7.0,7.0,86,0.00,,,0.00,meteohub,2013-01-03 05:23:00,
2013-01-02 23:28:00,30.2,26.6,28.84,North,0,6.0,7.0,86,0.00,,,0.00,meteohub,2013-01-03 05:28:00,
2013-01-02 23:33:00,30.6,27.0,28.84,North,0,5.0,7.0,86,0.00,,,0.00,meteohub,2013-01-03 05:33:00,
2013-01-02 23:38:00,30.2,26.6,28.84,NW,315,4.0,7.0,86,0.00,,,0.00,meteohub,2013-01-03 05:38:00,
2013-01-02 23:43:00,30.2,26.6,28.84,NW,315,6.0,6.0,86,0.00,,,0.00,meteohub,2013-01-03 05:43:00,
2013-01-02 23:48:00,30.2,26.6,28.84,NW,315,6.0,8.0,86,0.00,,,0.00,meteohub,2013-01-03 05:48:00,
2013-01-02 23:53:00,30.2,26.6,28.84,NW,315,7.0,8.0,86,0.00,,,0.00,meteohub,2013-01-03 05:53:00,
2013-01-02 23:58:00,30.2,26.6,28.84,NW,315,5.0,8.0,86,0.00,,,0.00,meteohub,2013-01-03 05:58:00,